Weather History for Oak Ridge, TN

Change the Weather History Date:

Thursday, June 13, 2013

  Actual Average (KTYS) Record (KTYS)
Temperature  
Mean Temperature 78 °F 75 °F  
Max Temperature 87 °F 85 °F 96 °F (1958)
Min Temperature 72 °F 64 °F 42 °F (1903)
Degree Days  
Heating Degree Days 0 0  
Month to date heating degree days 0  
Since 1 June heating degree days 0  
Since 1 July heating degree days 3633  
Cooling Degree Days 14 10  
Month to date cooling degree days 109  
Year to date cooling degree days 271  
Since 1 June cooling degree days 109  
Growing Degree Days 28 (Base 50)    
Moisture  
Dew Point 70 °F    
Average Humidity 75    
Maximum Humidity 91    
Minimum Humidity 56    
Precipitation  
Precipitation 0.14 in 0.12 in 1.84 in (1922)
Month to date precipitation 1.60  
Year to date precipitation 23.04  
Snow  
Snow 0.00 in 0.00 in - ()
Month to date snowfall 0.0  
Since 1 June snowfall 0.0  
Since 1 July snowfall 6.5  
Snow Depth -    
Sea Level Pressure  
Sea Level Pressure 29.83 in    
Wind  
Wind Speed 4 mph (West)    
Max Wind Speed 10 mph    
Max Gust Speed 23 mph    
Visibility 9 miles    
Events Rain    
T = Trace of Precipitation, MM = Missing Value Source: NWS Daily Summary

Daily Weather History Graph

Daily Weather History Graph

Search for Another Location

Airport:

Trip Planner

Search our weather history database for the weather conditions in past years. The results will help you decide how hot, cold, wet, or windy it might be!

Date:

Astronomy

Jun. 13, 2013 Rise Set
Actual Time 6:19 AM EDT 8:54 PM EDT
Civil Twilight 5:49 AM EDT 9:24 PM EDT
Nautical Twilight 5:11 AM EDT 10:02 PM EDT
Astronomical Twilight 4:30 AM EDT 10:44 PM EDT
Moon 10:48 AM EDT (6/13) No Moon Set
Length of Visible Light 15h 35m
Length of Day
14h 35m
Waxing Crescent, 21% of the Moon is Illuminated
Jun 13
Waxing Crescent
Jun 16
First Quarter
Jun 23
Full
Jun 30
Last Quarter
Jul 8
New

Hourly Weather History & Observations

Time (EDT) Temp. Heat Index Dew Point Humidity Pressure Visibility Wind Dir Wind Speed Gust Speed Precip Events Conditions
12:53 AM 78.1 °F - 72.0 °F 81% 29.90 in 10.0 mi SW 3.5 mph - N/A   Clear
1:53 AM 77.0 °F - 72.0 °F 84% 29.90 in 10.0 mi Calm Calm - N/A   Clear
2:53 AM 75.9 °F - 72.0 °F 87% 29.90 in 10.0 mi SSW 4.6 mph - N/A   Clear
3:53 AM 75.0 °F - 71.1 °F 87% 29.90 in 10.0 mi Calm Calm - N/A   Clear
4:53 AM 73.9 °F - 71.1 °F 91% 29.88 in 10.0 mi Calm Calm - N/A   Mostly Cloudy
5:53 AM 73.9 °F - 70.0 °F 87% 29.87 in 10.0 mi Calm Calm - N/A   Overcast
6:53 AM 73.0 °F - 70.0 °F 90% 29.86 in 10.0 mi Calm Calm - N/A   Mostly Cloudy
7:53 AM 75.0 °F - 70.0 °F 84% 29.85 in 8.0 mi Calm Calm - N/A   Mostly Cloudy
8:35 AM 77.0 °F - 71.6 °F 83% 29.90 in 10.0 mi Variable 3.5 mph - N/A   Overcast
8:53 AM 78.1 °F - 71.1 °F 79% 29.84 in 10.0 mi Calm Calm - N/A   Overcast
9:53 AM 78.1 °F - 71.1 °F 79% 29.83 in 10.0 mi Variable 4.6 mph - N/A   Overcast
10:53 AM 81.0 °F 85.2 °F 72.0 °F 74% 29.78 in 10.0 mi SSW 9.2 mph 16.1 mph N/A   Overcast
11:16 AM 82.4 °F 87.2 °F 71.6 °F 70% 29.83 in 10.0 mi SSW 10.4 mph 23.0 mph N/A   Overcast
11:27 AM 82.4 °F 87.2 °F 71.6 °F 70% 29.83 in 10.0 mi SSW 8.1 mph 20.7 mph N/A   Overcast
11:37 AM 82.4 °F 87.2 °F 71.6 °F 70% 29.84 in 10.0 mi SW 6.9 mph - N/A   Overcast
11:49 AM 82.4 °F 87.2 °F 71.6 °F 70% 29.84 in 10.0 mi SW 6.9 mph - N/A   Overcast
11:53 AM 82.0 °F 86.7 °F 72.0 °F 71% 29.78 in 10.0 mi Variable 5.8 mph - N/A   Overcast
12:02 PM 82.4 °F 88.2 °F 73.4 °F 74% 29.83 in 10.0 mi Variable 3.5 mph - N/A   Overcast
12:53 PM 80.1 °F 84.2 °F 73.0 °F 79% 29.78 in 3.0 mi West 9.2 mph - 0.03 in Rain Light Rain
1:53 PM 84.9 °F 91.4 °F 73.0 °F 67% 29.74 in 10.0 mi WSW 8.1 mph 19.6 mph 0.00 in   Scattered Clouds
2:53 PM 84.9 °F 90.7 °F 72.0 °F 65% 29.73 in 10.0 mi West 9.2 mph 17.3 mph N/A   Scattered Clouds
3:08 PM 80.6 °F 85.4 °F 73.4 °F 79% 29.80 in 1.8 mi NW 9.2 mph - 0.04 in Rain Heavy Rain
3:21 PM 75.2 °F - 69.8 °F 83% 29.81 in 2.5 mi NNW 5.8 mph - 0.10 in Rain Rain
3:29 PM 75.2 °F - 71.6 °F 89% 29.82 in 9.0 mi North 4.6 mph - 0.10 in Rain Light Rain
3:53 PM 75.9 °F - 72.0 °F 87% 29.76 in 10.0 mi Calm Calm - 0.11 in   Scattered Clouds
4:53 PM 81.0 °F 84.4 °F 70.0 °F 69% 29.77 in 10.0 mi Variable 4.6 mph - N/A   Mostly Cloudy
5:53 PM 82.9 °F 85.0 °F 66.0 °F 56% 29.78 in 10.0 mi NNW 6.9 mph - N/A   Clear
6:53 PM 80.1 °F 81.7 °F 64.0 °F 58% 29.80 in 10.0 mi North 10.4 mph 20.7 mph N/A   Mostly Cloudy
7:53 PM 79.0 °F - 63.0 °F 58% 29.80 in 10.0 mi NNW 6.9 mph - N/A   Partly Cloudy
8:53 PM 77.0 °F - 63.0 °F 62% 29.82 in 10.0 mi Variable 5.8 mph - N/A   Clear
9:53 PM 75.9 °F - 64.0 °F 67% 29.84 in 10.0 mi NW 3.5 mph - N/A   Mostly Cloudy
10:53 PM 73.9 °F - 63.0 °F 68% 29.88 in 10.0 mi Variable 6.9 mph - N/A   Overcast
11:53 PM 72.0 °F - 59.0 °F 64% 29.90 in 10.0 mi Variable 5.8 mph - N/A   Clear